GW3160 Weather Reports


time (UTC)temp
F
wind
direction
speed
knots
gust
knots
rain 1hr
in
rain 24hr
in
rain mn
in
humidity
%
barometer
mb
20260507211606 66 61 0.9 1.7 0.00 0.00 0.00 35 1005.9
20260507211101 66 152 2.6 2.6 0.00 0.00 0.00 35 1006.0
20260507210559 66 126 0.0 0.9 0.00 0.00 0.00 38 1005.9
20260507210056 66 104 0.9 0.9 0.00 0.00 0.00 37 1006.0
20260507205552 66 135 0.9 0.9 0.00 0.00 0.00 35 1005.9
20260507205049 65 208 0.9 1.7 0.00 0.00 0.00 37 1006.1
20260507204545 66 190 0.9 1.7 0.00 0.00 0.00 36 1006.1
20260507204043 66 203 1.7 2.6 0.00 0.00 0.00 36 1006.0
20260507203540 67 258 4.3 5.2 0.00 0.00 0.00 36 1006.0
20260507203038 66 19 0.9 1.7 0.00 0.00 0.00 38 1006.1
20260507202533 66 134 1.7 1.7 0.00 0.00 0.00 35 1006.1
20260507202030 65 114 1.7 1.7 0.00 0.00 0.00 39 1006.0
20260507201525 65 119 1.7 2.6 0.00 0.00 0.00 37 1006.0
20260507201022 68 205 0.9 1.7 0.00 0.00 0.00 36 1006.1
20260507200517 67 147 0.0 0.9 0.00 0.00 0.00 34 1006.1
20260507200014 69 268 2.6 3.5 0.00 0.00 0.00 33 1006.2
20260507195511 68 272 0.9 0.9 0.00 0.00 0.00 33 1006.1
20260507195009 65 224 0.9 1.7 0.00 0.00 0.00 39 1006.3
20260507194505 66 68 0.0 0.0 0.00 0.00 0.00 35 1006.3
20260507194001 67 150 0.0 0.9 0.00 0.00 0.00 37 1006.2
20260507193458 64 126 0.0 0.0 0.00 0.00 0.00 42 1006.4
20260507192954 64 149 0.9 0.9 0.00 0.00 0.00 39 1006.2
20260507192450 68 248 3.5 3.5 0.00 0.00 0.00 34 1006.5
20260507191948 66 24 0.9 0.9 0.00 0.00 0.00 38 1006.4
20260507191443 64 129 0.0 0.9 0.00 0.00 0.00 38 1006.5
20260507190940 64 99 0.9 0.9 0.00 0.00 0.00 43 1006.6
20260507190438 64 96 0.0 0.0 0.00 0.00 0.00 40 1006.5
20260507185937 68 96 2.6 2.6 0.00 0.00 0.00 37 1006.6
20260507185434 66 96 1.7 2.6 0.00 0.00 0.00 37 1006.8
20260507184930 66 154 0.9 0.9 0.00 0.00 0.00 37 1006.8
20260507184428 69 182 0.9 0.9 0.00 0.00 0.00 38 1007.0
20260507183926 68 310 1.7 2.6 0.00 0.00 0.00 38 1007.0
20260507183422 68 16 0.9 0.9 0.00 0.00 0.00 41 1006.9
20260507182920 68 178 0.9 0.9 0.00 0.00 0.00 40 1006.9
20260507182415 67 71 1.7 1.7 0.00 0.00 0.00 42 1006.8
20260507181912 68 174 0.9 1.7 0.00 0.00 0.00 40 1006.9
20260507181408 69 236 1.7 2.6 0.00 0.00 0.00 40 1007.0
20260507180905 69 281 2.6 5.2 0.00 0.00 0.00 36 1007.1
20260507180402 68 236 0.9 0.9 0.00 0.00 0.00 39 1007.1
20260507175858 68 123 0.9 0.9 0.00 0.00 0.00 39 1007.2
20260507175354 66 238 0.9 0.9 0.00 0.00 0.00 40 1007.4
20260507174852 64 68 1.7 1.7 0.00 0.00 0.00 43 1007.4
20260507174349 64 98 0.9 0.9 0.00 0.00 0.00 45 1007.4
20260507173847 66 97 0.9 1.7 0.00 0.00 0.00 43 1007.7
20260507173344 65 32 1.7 1.7 0.00 0.00 0.00 43 1007.9
20260507172840 65 64 1.7 2.6 0.00 0.00 0.00 42 1008.0
20260507172337 66 76 1.7 1.7 0.00 0.00 0.00 45 1008.2
20260507171832 64 94 1.7 1.7 0.00 0.00 0.00 44 1008.0
20260507171330 64 20 1.7 1.7 0.00 0.00 0.00 42 1008.0
20260507170827 65 77 4.3 6.1 0.00 0.00 0.00 42 1008.5
20260507170323 63 8 1.7 2.6 0.00 0.00 0.00 44 1008.2
20260507165819 66 1 1.7 1.7 0.00 0.00 0.00 41 1008.5
20260507165315 64 38 1.7 2.6 0.00 0.00 0.00 43 1008.4
20260507164811 65 26 1.7 1.7 0.00 0.00 0.00 43 1008.3
20260507164309 65 112 0.9 0.9 0.00 0.00 0.00 41 1008.5
20260507163806 63 209 0.0 0.9 0.00 0.00 0.00 46 1008.8
20260507163303 61 335 2.6 3.5 0.00 0.00 0.00 47 1008.9
20260507162759 61 115 0.9 1.7 0.00 0.00 0.00 46 1008.7
20260507162255 63 111 0.9 1.7 0.00 0.00 0.00 46 1009.1
20260507161752 61 122 2.6 2.6 0.00 0.00 0.00 46 1009.1
20260507161249 63 84 0.0 0.0 0.00 0.00 0.00 47 1008.8
20260507160745 62 122 2.6 2.6 0.00 0.00 0.00 46 1009.0
20260507160241 60 199 0.9 1.7 0.00 0.00 0.00 46 1009.2
20260507155737 62 116 0.9 0.9 0.00 0.00 0.00 46 1009.3
20260507155233 60 133 0.9 1.7 0.00 0.00 0.00 46 1009.2
20260507154730 60 118 3.5 3.5 0.00 0.00 0.00 47 1009.5
20260507154228 60 87 3.5 3.5 0.00 0.00 0.00 47 1009.2
20260507153724 60 24 0.9 0.9 0.00 0.00 0.00 45 1009.5
20260507153221 60 116 0.0 0.9 0.00 0.00 0.00 49 1009.4
20260507152717 61 227 0.9 0.9 0.00 0.00 0.00 47 1009.4
20260507152213 59 82 0.9 1.7 0.00 0.00 0.00 46 1009.7
20260507151709 59 147 1.7 2.6 0.00 0.00 0.00 46 1009.8
20260507151206 58 144 0.9 1.7 0.00 0.00 0.00 47 1009.6
20260507150703 57 286 3.5 3.5 0.00 0.00 0.00 49 1009.8
20260507150200 57 260 0.9 1.7 0.00 0.00 0.00 50 1010.1
20260507145656 56 127 0.9 0.9 0.00 0.00 0.00 54 1010.0
20260507145153 55 78 0.0 0.0 0.00 0.00 0.00 51 1010.2
20260507144649 56 331 2.6 2.6 0.00 0.00 0.00 53 1010.5
20260507144148 55 178 1.7 1.7 0.00 0.00 0.00 52 1010.5
20260507143644 55 89 0.9 0.9 0.00 0.00 0.00 54 1010.5
20260507143141 55 103 2.6 2.6 0.00 0.00 0.00 52 1010.7
20260507142636 54 130 0.9 0.9 0.00 0.00 0.00 56 1010.5
20260507142133 53 91 0.9 0.9 0.00 0.00 0.00 55 1010.7
20260507141629 53 110 2.6 2.6 0.00 0.00 0.00 55 1010.7
20260507141127 53 92 1.7 2.6 0.00 0.00 0.00 56 1010.7
20260507140623 53 125 0.9 1.7 0.00 0.00 0.00 57 1010.7
20260507140120 53 159 0.9 0.9 0.00 0.00 0.00 54 1010.9
20260507135618 53 171 0.0 0.9 0.00 0.00 0.00 58 1011.2
20260507135115 52 112 0.0 0.0 0.00 0.00 0.00 57 1011.0
20260507134611 52 25 1.7 1.7 0.00 0.00 0.00 56 1011.2
20260507134107 52 81 0.0 0.0 0.00 0.00 0.00 55 1011.2
20260507133603 52 112 0.0 0.0 0.00 0.00 0.00 55 1011.2
20260507133101 52 98 0.9 1.7 0.00 0.00 0.00 57 1011.3
20260507132557 51 137 0.0 0.0 0.00 0.00 0.00 59 1011.3
20260507132054 51 58 1.7 1.7 0.00 0.00 0.00 55 1011.3
20260507131551 51 63 3.5 3.5 0.00 0.00 0.00 57 1011.3
20260507131049 51 231 1.7 2.6 0.00 0.00 0.00 57 1011.2
20260507130545 51 103 1.7 1.7 0.00 0.00 0.00 61 1011.3
20260507130043 51 115 0.9 0.9 0.00 0.00 0.00 60 1011.2
20260507125542 51 42 0.9 0.9 0.00 0.00 0.00 58 1011.2
20260507125039 51 44 0.9 1.7 0.00 0.00 0.00 58 1011.3
20260507124535 51 73 0.9 0.9 0.00 0.00 0.00 58 1011.2
20260507124033 51 144 0.9 0.9 0.00 0.00 0.00 57 1011.4
20260507123531 51 84 1.7 1.7 0.00 0.00 0.00 60 1011.3
20260507123027 51 107 1.7 2.6 0.00 0.00 0.00 60 1011.4
20260507122522 50 64 0.9 0.9 0.00 0.00 0.00 63 1011.4
20260507122019 50 79 0.9 0.9 0.00 0.00 0.00 65 1011.2
20260507121514 50 78 0.0 0.9 0.00 0.00 0.00 65 1011.3
20260507121010 50 80 0.0 0.0 0.00 0.00 0.00 67 1011.4
20260507120507 50 80 0.0 0.0 0.00 0.00 0.00 70 1011.5
20260507120004 50 80 0.0 0.0 0.00 0.00 0.00 73 1011.3
20260507115500 50 79 0.0 0.0 0.00 0.00 0.00 72 1011.1
20260507114955 50 93 0.0 0.9 0.00 0.00 0.00 71 1011.1
20260507114452 49 93 0.0 0.0 0.00 0.00 0.00 71 1011.1
20260507113949 49 93 0.0 0.0 0.00 0.00 0.00 74 1011.1
20260507113446 49 94 0.0 0.0 0.00 0.00 0.00 73 1011.1
20260507112943 49 89 0.0 0.0 0.00 0.00 0.00 73 1011.0
20260507112441 49 74 1.7 1.7 0.00 0.00 0.00 74 1010.7
20260507111938 49 92 0.9 0.9 0.00 0.00 0.00 76 1011.0
20260507111435 49 93 0.0 0.0 0.00 0.00 0.00 76 1010.8
20260507110931 49 93 0.9 0.9 0.00 0.00 0.00 76 1010.7
20260507110427 49 91 0.0 0.9 0.00 0.00 0.00 76 1010.7
20260507105924 50 93 0.0 0.0 0.00 0.00 0.00 77 1010.7
20260507105421 50 96 0.0 0.0 0.00 0.00 0.00 77 1010.8
20260507104918 50 127 0.0 0.0 0.00 0.00 0.00 78 1010.7
20260507104415 50 127 0.0 0.0 0.00 0.00 0.00 78 1010.8
20260507103910 50 127 0.0 0.9 0.00 0.00 0.00 79 1010.6
20260507103407 50 102 0.0 0.0 0.00 0.00 0.00 79 1010.5
20260507102903 50 102 0.0 0.0 0.00 0.00 0.00 77 1010.6
20260507102400 50 101 0.0 0.0 0.00 0.00 0.00 76 1010.3
20260507101857 50 144 0.0 0.0 0.00 0.00 0.00 77 1010.4
20260507101356 50 138 0.0 0.0 0.00 0.00 0.00 77 1010.2
20260507100854 50 137 0.9 0.9 0.00 0.00 0.00 80 1010.2
20260507100351 50 137 0.9 0.9 0.00 0.00 0.00 79 1010.2
20260507095849 50 131 0.9 0.9 0.00 0.00 0.00 80 1009.8
20260507095345 50 131 0.0 0.0 0.00 0.00 0.00 81 1010.2
20260507094843 50 130 0.0 0.0 0.00 0.00 0.00 82 1010.1
20260507094339 50 130 0.0 0.0 0.00 0.00 0.00 82 1010.2
20260507093837 50 142 0.9 0.9 0.00 0.00 0.00 82 1010.2
20260507093335 50 156 0.0 0.9 0.00 0.00 0.00 85 1010.2
20260507092832 50 157 0.9 0.9 0.00 0.00 0.00 85 1010.1
20260507092328 50 152 0.0 0.0 0.00 0.00 0.00 86 1009.8
20260507091825 51 147 0.9 0.9 0.00 0.00 0.00 85 1009.8
20260507091322 51 139 0.9 0.9 0.00 0.00 0.00 84 1009.8
20260507090817 51 139 0.9 0.9 0.00 0.00 0.00 84 1009.7
20260507090314 51 166 0.9 1.7 0.00 0.00 0.00 84 1010.1
20260507085811 51 158 0.0 0.9 0.00 0.00 0.00 84 1010.0
20260507085308 51 160 0.0 0.0 0.00 0.00 0.00 84 1010.0
20260507084805 51 160 0.0 0.9 0.00 0.00 0.00 85 1010.3
20260507084301 51 147 0.0 0.9 0.00 0.00 0.00 84 1010.0
20260507083759 51 126 0.0 0.9 0.00 0.00 0.00 84 1010.2
20260507083255 51 125 0.0 0.0 0.00 0.00 0.00 84 1009.8
20260507082751 51 158 0.9 0.9 0.00 0.00 0.00 84 1010.0
20260507082247 51 133 0.0 0.0 0.00 0.00 0.00 84 1010.0
20260507081744 51 133 0.0 0.0 0.00 0.00 0.00 83 1009.8
20260507081240 51 156 0.0 0.9 0.00 0.00 0.00 84 1010.1
20260507080737 51 156 0.0 0.0 0.00 0.00 0.00 84 1010.3
20260507080233 51 157 0.9 0.9 0.00 0.00 0.00 83 1009.8
20260507075729 51 156 0.0 0.0 0.00 0.00 0.00 85 1009.8
20260507075225 51 155 0.0 0.0 0.00 0.00 0.00 86 1009.7
20260507074721 51 156 0.0 0.0 0.00 0.00 0.00 84 1009.6
20260507074220 51 156 0.0 0.9 0.00 0.00 0.00 83 1009.5
20260507073716 51 159 0.0 0.0 0.00 0.00 0.00 83 1009.6
20260507073213 51 142 0.0 0.9 0.00 0.00 0.00 84 1009.4
20260507072711 51 142 0.9 0.9 0.00 0.00 0.00 84 1009.5
20260507072208 51 157 0.9 0.9 0.00 0.00 0.00 84 1009.5
20260507071705 51 157 0.9 0.9 0.00 0.00 0.00 84 1009.7
20260507071201 51 157 0.0 0.0 0.00 0.00 0.00 84 1009.6
20260507070659 51 157 0.0 0.0 0.00 0.00 0.00 85 1009.7
20260507070155 51 157 0.0 0.0 0.00 0.00 0.00 84 1009.6
20260507065652 51 157 0.0 0.0 0.00 0.00 0.00 84 1009.7
20260507065149 51 157 0.0 0.0 0.00 0.00 0.00 85 1009.8
20260507064646 51 157 0.0 0.0 0.00 0.00 0.00 86 1009.5
20260507064144 51 157 0.0 0.0 0.00 0.00 0.00 85 1009.8
20260507063642 51 157 0.0 0.0 0.00 0.00 0.00 85 1010.0
20260507063138 51 157 0.0 0.0 0.00 0.00 0.00 85 1010.0
20260507062635 51 157 0.0 0.0 0.00 0.00 0.00 85 1010.0
20260507062133 51 157 0.0 0.0 0.00 0.00 0.00 85 1010.1
20260507061631 51 157 0.0 0.0 0.00 0.00 0.00 84 1010.2
20260507061128 51 157 0.0 0.0 0.00 0.00 0.00 84 1010.2
20260507060626 51 157 0.0 0.0 0.00 0.00 0.00 84 1010.7
20260507060123 51 129 0.0 0.0 0.00 0.00 0.00 86 1010.6
20260507055618 51 128 0.0 0.0 0.00 0.00 0.00 85 1010.5
20260507055114 51 128 0.0 0.0 0.00 0.00 0.00 84 1010.5
20260507054610 51 156 0.0 0.0 0.00 0.00 0.00 86 1010.7
20260507054108 51 156 0.0 0.0 0.00 0.00 0.00 85 1010.4
20260507053605 51 228 1.7 1.7 0.00 0.00 0.00 84 1010.5
20260507053104 51 155 0.0 0.0 0.00 0.00 0.00 84 1010.4
20260507052601 51 155 0.9 0.9 0.00 0.00 0.00 85 1010.7
20260507052058 51 155 0.0 0.9 0.00 0.00 0.00 84 1010.4
20260507051555 51 151 0.0 0.0 0.00 0.00 0.00 85 1010.5
20260507051052 51 114 0.0 0.0 0.00 0.00 0.00 84 1010.2
20260507050549 52 137 0.0 0.0 0.00 0.00 0.00 84 1010.1
20260507050045 52 105 1.7 1.7 0.00 0.00 0.00 83 1010.0
20260507045542 52 118 0.0 0.0 0.00 0.00 0.00 83 1010.2
20260507045039 52 95 1.7 1.7 0.00 0.00 0.00 82 1010.1
20260507044536 52 64 0.0 0.0 0.00 0.00 0.00 84 1010.1
20260507044033 52 130 0.9 1.7 0.00 0.00 0.00 83 1010.3
20260507043528 52 133 0.9 0.9 0.00 0.00 0.00 84 1010.2
20260507043026 52 134 0.9 0.9 0.00 0.00 0.00 84 1010.3
20260507042522 52 100 1.7 1.7 0.00 0.00 0.00 84 1010.1
20260507042017 52 81 0.9 1.7 0.00 0.00 0.00 84 1010.3
20260507041515 52 157 0.9 0.9 0.00 0.00 0.00 86 1010.4
20260507041012 52 124 0.9 1.7 0.00 0.00 0.00 86 1009.6
20260507040508 53 19 0.0 0.0 0.00 0.00 0.00 86 1009.4
20260507040004 53 111 0.0 0.0 0.00 0.07 0.07 88 1010.0
20260507035500 53 129 0.9 0.9 0.00 0.07 0.07 88 1010.2
20260507034956 54 133 0.9 1.7 0.00 0.07 0.07 88 1010.6
20260507034453 54 136 1.7 1.7 0.00 0.07 0.07 88 1010.1
20260507033952 54 83 0.0 0.0 0.00 0.07 0.07 87 1010.1
20260507033449 54 132 0.0 0.0 0.00 0.07 0.07 87 1009.8
20260507032946 54 132 0.0 0.0 0.00 0.07 0.07 87 1009.8
20260507032443 54 93 0.0 0.0 0.00 0.07 0.07 86 1009.5
20260507031939 54 103 1.7 1.7 0.00 0.07 0.07 86 1009.6
20260507031436 54 88 0.9 1.7 0.00 0.07 0.07 86 1009.7
20260507030933 55 135 0.9 0.9 0.00 0.07 0.07 86 1010.2
20260507030430 55 147 0.0 0.9 0.00 0.07 0.07 87 1010.5
20260507025927 55 144 0.0 0.0 0.00 0.07 0.07 87 1010.0
20260507025424 55 65 0.0 0.0 0.00 0.07 0.07 85 1009.7
20260507024922 55 131 0.0 0.0 0.00 0.07 0.07 86 1009.6
20260507024419 55 161 0.0 0.0 0.00 0.07 0.07 86 1009.6
20260507023915 55 162 0.0 0.0 0.00 0.07 0.07 85 1009.6
20260507023412 55 164 0.9 0.9 0.00 0.07 0.07 85 1009.2
20260507022909 55 151 0.9 0.9 0.00 0.07 0.07 85 1009.6
20260507022406 55 147 0.0 0.0 0.00 0.07 0.07 85 1009.6
20260507021901 55 131 0.9 0.9 0.00 0.07 0.07 85 1009.5
20260507021357 55 83 1.7 1.7 0.00 0.07 0.07 86 1009.3
20260507020855 55 147 1.7 1.7 0.00 0.07 0.07 87 1009.4
20260507020351 56 163 0.9 0.9 0.00 0.07 0.07 86 1009.4
20260507015848 56 124 0.0 0.0 0.00 0.07 0.07 86 1009.4
20260507015346 56 138 0.0 0.0 0.00 0.07 0.07 86 1008.9
20260507014843 56 120 0.9 0.9 0.00 0.07 0.07 86 1009.3
20260507014339 56 173 0.9 0.9 0.00 0.07 0.07 86 1009.2
20260507013836 56 170 0.0 0.0 0.00 0.07 0.07 86 1008.9
20260507013333 56 171 0.0 0.0 0.00 0.07 0.07 86 1009.2
20260507012831 56 139 0.0 0.0 0.00 0.07 0.07 86 1009.0
20260507012326 56 124 0.0 0.9 0.00 0.07 0.07 86 1009.3
20260507011823 57 133 0.9 0.9 0.00 0.07 0.07 85 1009.3
20260507011320 57 110 0.9 0.9 0.00 0.07 0.07 85 1009.0
20260507010820 57 88 0.0 0.0 0.00 0.07 0.07 85 1008.6
20260507010315 57 153 0.0 0.0 0.00 0.07 0.07 85 1008.8
20260507005813 57 123 0.0 0.0 0.00 0.07 0.07 85 1009.0
20260507005309 57 91 0.0 0.0 0.00 0.07 0.07 86 1008.7
20260507004801 57 112 0.9 0.9 0.00 0.07 0.07 86 1008.6
20260507004258 57 140 0.0 0.0 0.00 0.07 0.07 86 1008.9
20260507003754 57 112 0.0 0.0 0.00 0.07 0.07 87 1008.9
20260507003250 57 153 0.9 0.9 0.00 0.07 0.07 86 1009.3
20260507002746 57 91 0.0 0.0 0.00 0.07 0.07 87 1009.4
20260507002242 58 117 0.0 0.9 0.00 0.07 0.07 88 1009.1
20260507001739 58 119 0.9 0.9 0.00 0.07 0.07 87 1008.7
20260507001236 58 113 0.0 0.9 0.00 0.07 0.07 87 1009.0
20260507000733 58 77 0.9 0.9 0.00 0.07 0.07 88 1008.8
20260507000228 59 125 1.7 1.7 0.00 0.07 0.07 88 1008.9
20260506235725 59 147 0.9 0.9 0.00 0.07 0.07 88 1009.1
20260506235221 59 118 0.0 0.0 0.00 0.07 0.07 89 1008.9
20260506234718 59 112 0.0 0.0 0.00 0.07 0.07 89 1008.9
20260506234215 59 92 0.9 0.9 0.00 0.07 0.07 88 1008.6
20260506233713 59 115 0.0 0.0 0.00 0.07 0.07 89 1008.6
20260506233209 60 73 0.9 0.9 0.00 0.07 0.07 88 1008.4
20260506232706 60 74 0.0 0.0 0.00 0.07 0.07 89 1008.6
20260506232200 60 101 0.0 0.9 0.00 0.07 0.07 89 1008.4
20260506231658 60 52 0.0 0.0 0.00 0.07 0.07 90 1008.4
20260506231157 60 89 0.0 0.0 0.00 0.07 0.07 90 1008.2
20260506230653 60 92 0.0 0.0 0.00 0.07 0.07 90 1008.1
20260506230150 60 147 0.9 0.9 0.00 0.07 0.07 91 1008.1
20260506225646 60 109 0.0 0.9 0.00 0.07 0.07 90 1007.8
20260506225143 61 121 0.9 0.9 0.00 0.07 0.07 90 1007.9
20260506224639 61 134 0.9 0.9 0.00 0.07 0.07 89 1007.8
20260506224136 62 131 0.9 0.9 0.00 0.07 0.07 87 1007.9
20260506223632 62 90 0.0 0.0 0.00 0.07 0.07 87 1007.5
20260506223128 62 203 1.7 1.7 0.00 0.07 0.07 86 1007.6
20260506222626 62 130 0.0 0.9 0.00 0.07 0.07 86 1007.7
20260506222122 63 166 0.9 0.9 0.00 0.07 0.07 86 1007.4
20260506221620 63 116 1.7 1.7 0.00 0.07 0.07 86 1007.1
20260506221118 63 90 0.0 0.0 0.00 0.07 0.07 87 1007.4
20260506220614 63 120 1.7 1.7 0.00 0.07 0.07 87 1007.4
20260506220109 64 84 0.0 0.0 0.00 0.07 0.07 87 1007.5
20260506215606 64 161 0.0 0.0 0.00 0.07 0.07 86 1007.6
20260506215101 64 147 0.9 1.7 0.00 0.07 0.07 85 1007.4
20260506214559 64 122 0.9 0.9 0.00 0.07 0.07 86 1006.9
20260506214056 65 150 0.0 0.0 0.00 0.07 0.07 84 1006.6
20260506213554 65 105 0.9 0.9 0.00 0.07 0.07 83 1006.7
20260506213051 66 121 0.9 0.9 0.00 0.07 0.07 83 1006.7
20260506212548 66 57 0.0 0.9 0.00 0.07 0.07 80 1006.6
20260506212043 66 98 1.7 1.7 0.00 0.07 0.07 82 1006.5